SCP
0 0 0 0 0 0 0 0 0 0 1 1 1 1 0 0 0 0 0 0 0 0 0 0 0 0 0 0 0 0 0 0 0 0 0 0 0 0 0 0 0 0 0
0 0 0 0 0 0 0 0 0 0 1 1 1 1 0 0 0 0 0 0 0 0 0 0 0 0 0 0 0 0 0 0 0 0 0 0 0 0 0 0 0 0 0
0 0 0 0 0 0 0 0 0 0 1 1 1 0 0 0 0 0 0 0 0 0 0 0 0 0 0 0 0 0 0 0 0 0 0 0 0 0 0 0 0 0 0
0 0 0 0 0 0 0 0 0 0 0 0 0 0 0 0 0 0 0 0 0 0 0 0 0 0 0 0 0 0 0 0 0 0 0 0 0 0 0 0 0 0 0
0 0 0 0 0 0 0 0 0 0 0 0 0 0 0 0 0 0 0 0 0 0 0 0 0 0 0 0 0 0 0 0 0 0 0 0 0 0 0 0 0 0 0
0 0 0 0 0 0 0 0 0 0 0 0 0 0 0 0 0 0 0 0 0 0 0 0 0 0 0 0 0 0 0 0 0 0 0 0 0 0 0 0 0 0 0
0 0 0 0 0 0 0 0 0 0 0 0 0 0 0 0 0 0 0 0 0 0 0 0 0 0 0 0 0 0 0 0 0 0 0 0 0 0 0 0 0 0 0
0 0 0 0 0 0 0 0 0 0 0 0 0 0 0 0 0 0 0 0 0 0 0 0 0 0 0 0 0 0 0 0 0 0 0 0 0 0 0 0 0 0 0
0 0 0 0 0 0 0 0 0 0 0 0 0 0 0 0 0 0 0 0 0 0 0 0 0 0 0 0 0 0 0 0 0 0 0 0 0 0 0 0 0 0 0
0 0 0 0 0 0 0 0 0 0 0 0 0 0 0 0 0 0 0 0 0 0 0 0 0 0 0 0 0 0 0 0 0 0 0 0 0 0 0 0 0 0 0
0 0 0 0 0 0 0 0 0 0 0 0 0 0 0 0 0 0 0 0 0 0 0 0 0 0 0 0 0 0 0 0 0 0 0 0 0 0 0 0 0 0 0
0 0 0 0 0 0 0 0 0 0 0 0 0 0 0 0 0 0 0 0 0 0 0 0 0 0 0 0 0 0 0 0 0 0 0 0 0 0 0 0 0 0 0
0 0 0 0 0 0 0 0 0 0 0 0 0 0 0 0 0 0 0 0 0 0 0 0 0 0 0 0 0 0 0 0 0 0 0 0 0 0 0 0 0 0 0
0 0 0 0 0 0 0 0 0 0 0 0 0 0 0 0 0 0 0 0 0 0 0 0 0 0 0 0 0 0 0 0 0 0 0 0 0 0 0 0 0 0 0
0 0 0 0 0 0 0 0 0 0 0 0 0 0 0 0 0 0 0 0 0 0 0 0 0 0 0 0 0 0 0 0 0 0 0 0 0 0 0 0 0 0 0
0 0 0 0 0 0 0 0 0 0 0 0 0 0 0 0 0 0 0 0 0 0 0 0 0 0 0 0 0 0 0 0 0 0 0 0 0 0 0 0 0 0 0
0 0 0 0 0 0 0 0 0 0 0 0 0 0 0 0 0 0 0 0 0 0 0 0 0 0 0 0 0 0 0 0 0 0 0 0 0 0 0 0 0 0 0
0 0 0 0 0 0 0 0 0 0 0 0 0 0 0 0 0 0 0 0 0 0 0 0 0 0 0 0 0 0 0 0 0 0 0 0 0 0 0 0 0 0 0
0 0 0 0 0 0 0 0 0 0 0 0 0 0 0 0 0 0 0 0 0 0 0 0 0 0 0 0 0 0 0 0 0 0 0 0 0 0 0 0 0 0 0
0 0 0 0 0 0 0 0 0 0 0 0 0 0 0 0 0 0 0 0 0 0 0 0 0 0 0 0 0 0 0 0 0 0 0 0 0 0 0 0 0 0 0
0 0 0 0 0 0 0 0 0 0 0 0 0 0 0 0 0 0 0 0 0 0 0 0 0 0 0 0 0 0 0 0 0 0 0 0 0 0 0 0 0 0 0
0 0 0 0 0 0 0 0 0 0 0 0 0 0 0 0 0 0 0 0 0 0 0 0 0 0 0 0 0 0 0 0 0 0 0 0 0 0 0 0 0 0 0
0 0 0 0 0 0 0 0 0 0 0 0 0 0 0 0 0 0 0 0 0 0 0 0 0 0 0 0 0 0 0 0 0 0 0 0 0 0 0 0 0 0 0
0 0 0 0 0 0 0 0 0 0 0 0 0 0 0 0 0 0 0 0 0 0 0 0 0 0 0 0 0 0 0 0 0 0 0 0 0 0 0 0 0 0 0
0 0 0 0 0 0 0 0 0 0 0 0 0 0 0 0 0 0 0 0 0 0 0 0 0 0 0 0 0 0 0 0 0 0 0 0 0 0 0 0 0 0 0
0 0 0 0 0 0 0 0 0 0 0 0 0 0 0 0 0 0 0 0 0 0 0 0 0 0 0 0 0 0 0 0 0 0 0 0 0 0 0 0 0 0 0
Wind_Speed
5 5 4 4 4 4 4 4 4 4 4 4 4 4 4 4 4 4 3 3 3 3 3 4 4 4 3 3 3 3 3 4 7 7 5 4 5 5 5 5 5 5 6
4 4 4 4 4 4 4 5 4 4 4 4 4 4 4 4 4 4 4 4 4 4 4 4 5 4 5 4 4 4 4 4 5 8 6 5 5 5 5 6 6 6 5
4 4 4 4 4 4 5 5 5 4 4 4 4 4 4 4 4 4 4 4 4 4 4 4 5 5 5 4 5 5 4 5 4 6 7 5 5 4 5 6 6 5 6
4 4 4 4 4 4 5 5 5 4 4 4 5 4 4 4 4 5 5 4 4 4 4 4 4 4 5 6 5 5 5 5 5 5 6 6 5 4 4 5 6 4 6
4 4 4 4 4 5 5 5 5 5 5 4 5 5 5 4 5 6 5 5 5 5 5 4 5 6 7 6 6 6 6 5 5 5 6 6 5 5 4 4 6 6 6
4 4 4 4 5 5 5 5 5 5 5 5 5 5 5 5 8 10 8 5 5 5 6 5 5 5 7 9 10 10 9 7 7 6 6 7 7 6 5 5 6 6 7
4 4 5 5 5 5 6 5 5 5 5 5 5 5 5 6 10 11 11 6 5 5 5 6 6 6 6 6 8 10 9 10 10 8 8 8 8 7 6 7 6 6 7
4 5 5 5 5 5 5 5 6 5 5 5 5 5 5 7 11 11 11 6 5 5 5 5 6 6 6 8 7 7 7 7 8 7 7 7 7 6 6 7 7 7 6
4 5 5 5 5 6 6 6 5 5 5 5 5 5 5 7 11 12 11 5 5 6 5 5 6 6 10 12 8 8 9 7 9 11 11 10 11 11 8 5 4 4 6
4 5 5 5 5 5 5 5 5 5 5 5 5 5 5 6 10 13 12 5 6 6 5 5 7 9 12 13 8 8 9 8 7 8 8 8 7 7 8 5 4 4 4
4 4 5 5 5 5 5 4 5 5 5 5 5 5 5 5 9 12 12 6 6 6 6 5 6 12 14 14 11 7 10 10 7 6 6 6 5 4 4 4 4 4 4
3 4 4 4 4 4 4 4 4 4 4 5 5 5 4 4 6 10 13 11 10 6 6 6 7 14 15 14 10 11 12 9 4 4 5 5 5 5 5 5 5 4 5
3 3 4 4 4 4 3 4 4 3 3 4 4 5 5 4 6 10 11 12 13 7 5 10 12 14 13 9 11 12 8 4 4 5 5 5 5 5 5 5 4 4 5
2 3 3 3 4 3 3 3 3 3 3 4 4 5 5 5 5 5 5 6 8 7 6 7 11 12 9 8 8 7 4 4 4 5 5 5 5 4 4 4 4 4 5
2 3 3 3 3 3 3 3 3 3 3 4 4 4 5 5 7 12 9 7 6 6 7 4 4 5 5 5 4 4 4 4 4 4 4 4 5 5 4 4 4 4 4
3 3 2 2 2 3 3 4 5 5 7 8 8 7 6 8 12 13 14 13 13 13 7 4 5 5 5 5 5 5 5 5 5 4 4 4 4 5 5 4 4 4 5
3 3 2 2 2 3 3 3 4 5 6 8 9 10 10 11 12 13 13 13 12 11 5 4 5 5 5 5 5 5 5 5 5 5 5 5 4 4 5 5 5 5 5
3 4 3 2 2 3 3 3 3 4 5 4 6 10 11 12 12 12 12 9 6 5 3 4 5 5 5 5 5 5 5 5 5 5 5 4 4 4 5 5 5 5 6
3 3 2 2 2 3 3 3 3 3 4 5 4 6 8 10 11 11 9 3 4 4 4 5 5 5 5 5 5 5 5 5 5 5 4 5 4 4 5 5 5 6 6
3 4 3 2 2 3 2 3 3 3 4 4 4 5 4 4 4 5 4 3 3 4 5 5 5 5 5 5 5 5 5 5 5 5 5 4 4 4 5 6 5 5 5
3 3 3 2 3 3 3 3 3 3 4 4 4 5 8 4 4 5 4 3 4 4 5 5 5 5 5 5 5 5 6 5 5 5 5 4 4 4 4 5 5 5 5
3 3 3 3 3 3 3 3 3 4 4 5 5 5 9 4 3 4 4 4 4 4 4 5 5 5 5 4 5 5 6 6 5 5 5 5 4 4 5 4 4 4 4
3 3 3 3 3 3 3 3 3 4 4 4 5 4 4 4 4 4 5 5 4 4 4 4 5 6 5 5 5 5 6 6 6 5 6 5 5 4 4 5 5 5 5
3 4 4 3 3 3 3 4 4 4 4 4 4 4 4 4 4 5 5 5 4 4 4 4 5 7 9 7 6 5 5 6 6 5 6 6 6 5 4 5 5 5 5
4 4 4 4 3 3 4 4 4 4 4 4 4 4 4 4 5 5 5 5 5 5 6 6 5 7 9 10 9 8 9 10 8 6 5 5 5 6 5 5 5 5 4
4 4 4 3 3 3 4 4 4 4 4 4 4 4 4 5 5 5 5 5 5 5 6 5 7 9 10 9 10 11 10 10 8 7 5 4 5 5 4 4 5 4 4
Wind_Direction
0 360 357 357 359 3 5 359 352 350 350 354 346 342 341 336 331 331 332 336 336 335 335 333 326 324 316 313 310 306 295 291 287 296 299 306 306 309 315 313 308 310 313
351 354 355 356 358 1 360 353 351 351 348 347 341 339 337 335 334 334 334 339 341 335 331 327 320 324 324 322 317 309 305 300 290 295 302 309 307 308 310 311 314 313 309
353 357 358 356 356 354 355 352 351 350 349 351 349 344 340 336 337 338 335 337 336 329 328 325 321 327 321 319 316 309 305 303 296 294 298 304 306 311 312 309 307 305 307
358 1 1 355 350 349 352 353 351 353 354 353 350 345 341 340 343 343 340 337 333 329 328 324 320 319 312 312 309 311 309 305 303 298 298 304 304 308 308 311 311 311 309
1 5 358 351 353 356 355 352 351 354 351 352 354 349 345 343 348 349 343 336 330 327 327 324 322 320 319 317 315 315 313 305 302 298 298 304 305 311 306 306 302 307 306
1 360 354 357 358 356 351 350 353 352 348 351 352 347 343 342 346 347 345 338 334 330 326 326 324 325 327 324 321 319 316 309 305 301 298 298 298 300 302 299 301 306 303
0 359 0 359 356 350 347 350 350 345 345 345 345 345 339 338 344 344 345 340 333 327 325 323 322 325 322 320 320 318 316 310 303 294 290 292 296 300 300 295 293 294 292
1 357 356 357 350 346 348 348 344 341 340 337 335 335 336 340 342 341 340 339 329 326 323 317 316 317 320 324 321 317 313 310 307 304 293 294 297 297 290 290 293 299 297
355 351 349 348 342 341 342 340 337 336 335 333 335 340 340 337 342 341 343 335 327 323 323 323 317 314 321 325 322 314 311 310 313 308 305 306 309 309 307 304 297 296 300
347 343 341 340 337 335 332 331 333 332 332 335 338 339 332 330 338 342 343 333 328 327 325 325 321 322 324 327 322 316 311 313 317 318 316 314 313 310 312 300 284 278 292
343 341 338 336 332 326 327 331 332 331 334 335 331 329 329 331 335 340 341 338 330 324 322 324 325 327 327 326 326 318 314 318 317 318 319 320 322 322 322 322 313 293 288
344 337 331 330 327 329 332 332 335 337 336 332 331 330 332 337 341 341 342 341 338 327 322 323 324 328 329 330 329 325 325 328 323 319 319 321 322 323 324 327 324 319 300
339 327 323 324 325 326 327 327 332 336 331 327 330 328 329 336 337 338 339 338 336 329 318 322 325 328 330 330 328 329 332 330 326 320 314 312 314 312 317 322 325 325 319
315 312 314 317 320 326 322 321 322 323 322 322 322 320 320 322 325 329 329 329 329 326 323 322 325 326 327 328 329 330 331 326 319 310 311 314 316 317 319 324 323 326 322
297 299 305 304 307 315 313 308 308 297 302 309 306 308 312 314 318 324 327 326 325 320 325 322 324 325 327 327 327 328 327 327 320 316 313 317 320 321 322 327 324 323 316
286 292 294 299 305 308 310 312 308 303 311 312 311 313 308 311 320 326 328 329 329 331 332 322 321 320 318 320 323 323 323 324 323 321 316 314 316 316 317 321 322 316 310
256 271 279 286 291 296 301 307 313 317 310 312 317 320 320 322 325 329 332 334 336 342 339 319 316 317 315 315 315 315 315 317 318 315 313 313 312 312 311 312 314 314 310
253 259 260 269 277 281 286 292 297 306 313 313 316 318 323 325 327 330 335 340 339 343 327 315 314 314 311 311 311 311 311 313 315 313 311 310 308 306 305 305 306 306 307
247 255 255 263 270 275 280 283 285 290 295 303 314 320 323 324 327 331 338 339 322 319 316 310 306 307 306 303 303 304 305 304 305 306 304 304 303 302 301 301 302 301 303
242 251 252 255 264 271 275 279 285 289 292 297 301 307 316 325 325 327 329 319 310 305 305 304 303 302 303 303 301 300 300 299 302 301 300 298 297 295 295 297 299 302 301
238 246 245 253 254 258 262 266 272 277 282 286 288 296 311 313 307 308 309 308 303 301 303 304 301 300 301 303 304 299 295 294 297 300 299 296 295 294 293 292 294 296 300
226 231 230 239 249 253 257 260 265 271 276 282 290 300 308 305 296 296 297 297 295 292 293 295 299 299 297 296 299 301 298 295 295 296 297 296 291 290 292 293 295 299 301
220 227 236 243 246 253 259 259 261 265 271 276 283 290 294 290 290 291 293 296 298 299 298 295 294 297 299 294 288 285 287 288 290 291 291 293 291 287 287 287 288 295 296
218 224 232 240 242 244 251 259 260 263 268 274 278 280 281 283 285 288 290 293 296 297 297 296 293 295 298 300 294 286 281 284 284 280 280 281 285 283 282 285 286 287 287
219 224 229 233 237 243 251 257 260 263 267 271 274 277 279 280 282 286 288 291 295 295 296 296 295 296 298 296 295 294 293 294 292 285 277 272 274 274 273 277 283 291 294
222 225 230 233 237 241 247 255 260 263 266 269 271 275 279 281 283 285 289 293 296 297 297 295 293 295 297 297 296 299 298 298 295 286 273 270 272 274 272 275 284 287 289